[[{"header":{"parameterUnit":"m.s-1","parameterCategory":1,"la1":30.2991,"la2":30.254,"lo1":-89.0895,"lo2":-89.0444,"dy":0.0017,"dx":0.0017,"nx":28,"ny":28,"refTime":"2025-12-30T03:00:00:Z","depth":0,"parameterNumber":2,"parameterNumberName":"U-component_of_WINDS"},"data":[0,0,0,0,0,0,0,0,0,0,0,0,0,0,0,0,0,0,0,0,0,0,0,0,0,0,0,0,0,0,0,0,0,0,0,0,0,0,0,0,0,0,0,0,0,0,0,0,0,0,0,0,0,0,0,0,0,0,2.5873,2.5873,0,2.5899,2.59,2.59,2.5875,2.5874,2.5873,2.5872,2.5899,2.5901,2.5903,0,0,0,0,0,0,0,0,0,0,0,0,0,2.5803,2.5804,2.5873,2.5874,2.5874,2.5899,2.59,2.59,2.5875,2.5874,2.5873,2.5872,2.5899,2.5901,2.5903,0,0,0,0,0,0,0,0,0,0,0,0,0,2.5832,2.5805,2.5873,2.5865,2.5864,2.5899,2.59,2.59,2.5876,2.5874,2.5873,2.5871,2.5898,2.5901,2.5903,2.5948,0,0,2.5911,2.5912,0,0,0,0,0,0,0,0,2.583,2.5834,2.5865,2.5865,2.5865,2.5882,2.5885,2.5916,2.5876,2.5871,2.5872,2.587,2.5895,2.5898,2.5906,2.5949,2.5951,2.5911,2.5912,2.5913,2.5914,0,0,0,0,0,0,0,2.5828,2.5833,2.5884,2.5866,2.5865,2.586,2.5862,2.5891,2.5891,2.5871,2.587,2.5873,2.5894,2.5904,2.5906,2.5951,2.5911,2.5913,2.5915,2.5915,2.6034,2.6036,0,0,0,0,0,0,2.5827,2.5831,2.5883,2.5884,2.5843,2.5862,2.5865,2.5878,2.5891,2.5891,2.5874,2.5872,2.59,2.5903,2.5907,2.5961,2.5913,2.5916,2.5917,2.6032,2.6034,2.6036,0,0,0,0,0,0,2.5825,2.5832,2.5882,2.5857,2.5863,2.5865,2.588,2.588,2.5888,2.5893,2.5893,2.5883,2.5899,2.5904,2.5938,2.5962,2.5917,2.5919,2.603,2.6033,2.6035,2.607,0,0,0,0,0,0,2.5824,2.5831,2.5848,2.5858,2.5865,2.5912,2.5882,2.5881,2.5893,2.589,2.5901,2.5902,2.5898,2.5935,2.5941,2.5965,2.5921,2.6028,2.6032,2.6035,2.6067,2.6073,2.6079,0,0,0,0,0,2.5821,2.5857,2.5849,2.5855,2.5886,2.5914,2.5917,2.5912,2.5895,2.5912,2.5915,2.5902,2.5958,2.5939,2.5945,2.597,2.6027,2.6031,2.6034,2.6064,2.6072,2.6079,0,0,0,0,0,0,2.585,2.5858,2.5849,2.5889,2.5901,2.5909,2.5931,2.5921,2.5938,2.5934,2.5927,2.593,2.5967,2.5972,2.595,2.6015,2.599,2.5995,2.601,2.6018,2.6024,2.6022,2.5923,0,0,0,0,0,2.5861,2.5882,2.5888,2.5923,2.5929,2.5929,2.5941,2.5936,2.5948,2.5953,2.5958,2.597,2.5991,2.6005,2.6024,2.6067,2.607,2.6088,2.6094,2.6099,2.6104,2.6128,2.6136,2.6049,2.6048,2.6048,0,0,2.5883,2.5891,2.5905,2.5929,2.5937,2.596,2.5933,2.5959,2.5976,2.5957,2.599,2.5994,2.6007,2.6047,2.6065,2.6052,2.6128,2.6104,2.6108,2.611,2.6133,2.6141,2.6148,2.6051,2.6051,2.605,0,0,2.5937,2.5944,2.5974,2.5983,2.5996,2.5996,2.6004,2.6014,2.6016,2.6049,2.6036,2.6056,2.6091,2.6102,2.6111,2.617,2.6158,2.6176,2.6208,2.6232,2.6239,2.6245,2.6266,2.6274,2.6181,2.6181,2.6181,0,2.5963,2.5997,2.5991,2.6017,2.6029,2.6013,2.6043,2.6053,2.6071,2.608,2.6066,2.6111,2.6118,2.616,2.6175,2.6183,2.6191,2.6175,2.6238,2.6244,2.625,2.627,2.6278,2.6183,2.6183,2.6183,2.6182,0,2.603,2.6054,2.6076,2.6095,2.6109,2.6138,2.6136,2.6151,2.6145,2.6147,2.6181,2.619,2.6211,2.622,2.6215,2.6262,2.6254,2.6239,2.6214,2.6261,2.628,2.6287,2.6186,2.6185,2.6185,2.6184,0,0,2.6102,2.6117,2.6126,2.6134,2.6148,2.6166,2.6194,2.6215,2.6228,2.6242,2.6266,2.6297,2.6283,2.6295,2.629,2.6311,2.6357,2.6293,2.6294,2.6305,2.6411,2.6422,2.6431,2.635,2.6351,2.6352,2.641,0,2.6156,2.6204,2.62,2.6246,2.6269,2.6254,2.6278,2.629,2.6292,2.6312,2.6314,2.6336,2.6317,2.6324,2.6344,2.6347,2.6378,2.6343,2.6372,2.6373,2.6369,2.6441,2.6452,2.6506,2.6417,2.6418,2.6419,0,2.6226,2.6242,2.6291,2.6302,2.6311,2.6333,2.6352,2.6371,2.6383,2.6384,2.6397,2.6389,2.6418,2.6392,2.6432,2.6408,2.642,2.6423,2.6425,2.6428,2.6399,2.6445,2.6523,2.6531,2.643,2.643,2.6429,0,2.6274,2.6308,2.6342,2.635,2.6363,2.6379,2.6386,2.6397,2.641,2.6426,2.6435,2.6455,2.6466,2.6481,2.6479,2.6461,2.652,2.6494,2.6522,2.6522,2.6535,2.6534,2.6616,2.6542,2.6542,2.6542,2.6542,0,2.6335,2.6365,2.6364,2.6384,2.6418,2.6413,2.6447,2.6451,2.6462,2.6484,2.6472,2.6493,2.6488,2.6509,2.6508,2.6541,2.6546,2.6548,2.6547,2.6549,2.6549,2.6557,2.6553,2.6544,2.6543,2.6543,2.6543,0,2.6395,2.6394,2.643,2.644,2.6444,2.6468,2.6477,2.6497,2.6499,2.6526,2.6532,2.6535,2.6559,2.6558,2.6586,2.6585,2.6626,2.6621,2.6622,2.6621,2.6649,2.6646,2.6738,2.675,2.6669,2.6669,2.667,0,2.6434,2.6457,2.647,2.6483,2.6491,2.6513,2.6526,2.6522,2.6537,2.6553,2.6571,2.6594,2.6612,2.6651,2.6656,2.6677,2.6672,2.6703,2.6675,2.6677,2.6673,2.6672,2.6675,2.6709,2.6709,2.671,2.6711,0,2.6504,2.6503,2.6522,2.6542,2.6558,2.6573,2.6588,2.6599,2.6597,2.6614,2.6638,2.6652,2.668,2.6703,2.6724,2.673,2.6721,2.672,2.6727,2.6729,2.6729,2.673,2.6637,2.6717,2.6717,2.6716,2.6716,2.6716,2.6554,2.6575,2.6587,2.6609,2.6619,2.6633,2.6652,2.6657,2.6677,2.6699,2.6696,2.6723,2.6736,2.6762,2.6771,2.6793,2.6782,2.6793,2.6795,2.6798,2.6802,2.6726,2.6796,2.6796,2.6796,2.6796,2.6796,0,2.6624,2.6631,2.6652,2.6672,2.669,2.6679,2.6694,2.671,2.6734,2.6747,2.6765,2.6794,2.6816,2.6822,2.6844,2.686,2.6857,2.6866,2.6865,2.6867,2.681,2.6801,2.6869,2.6869,2.6869,2.6869,2.6869,2.6869,2.6662,2.6696,2.6697,2.6736,2.6743,2.6769,2.6779,2.6792,2.6802,2.6834,2.6853,2.6857,2.6868,2.689,2.691,2.6912,2.6921,2.6932,2.6932,2.6878,2.6871,2.6864,2.6856,2.6934,2.6934,2.6987,2.6988,2.6988]},{"header":{"parameterUnit":"m.s-1","parameterCategory":1,"la1":30.2991,"la2":30.254,"lo1":-89.0895,"lo2":-89.0444,"dy":0.0017,"dx":0.0017,"nx":28,"ny":28,"refTime":"2025-12-30T03:00:00:Z","depth":0,"parameterNumber":3,"parameterNumberName":"V-component_of_WINDS"},"data":[0,0,0,0,0,0,0,0,0,0,0,0,0,0,0,0,0,0,0,0,0,0,0,0,0,0,0,0,0,0,0,0,0,0,0,0,0,0,0,0,0,0,0,0,0,0,0,0,0,0,0,0,0,0,0,0,0,0,-0.0906,-0.0907,0,-0.0976,-0.0977,-0.0977,-0.0999,-0.0999,-0.0999,-0.0998,-0.1072,-0.1074,-0.1076,0,0,0,0,0,0,0,0,0,0,0,0,0,-0.0796,-0.0798,-0.0906,-0.0907,-0.0908,-0.0976,-0.0977,-0.0978,-0.0999,-0.0999,-0.0999,-0.0998,-0.1071,-0.1074,-0.1076,0,0,0,0,0,0,0,0,0,0,0,0,0,-0.0852,-0.0798,-0.0906,-0.0927,-0.093,-0.0975,-0.0977,-0.0978,-0.0999,-0.0999,-0.0998,-0.0998,-0.107,-0.1073,-0.1077,-0.1108,0,0,-0.1087,-0.1088,0,0,0,0,0,0,0,0,-0.0849,-0.0856,-0.0923,-0.0926,-0.0929,-0.0978,-0.0965,-0.1021,-0.1,-0.0973,-0.0998,-0.0998,-0.1041,-0.1047,-0.1061,-0.1111,-0.1114,-0.1087,-0.1089,-0.1091,-0.1092,0,0,0,0,0,0,0,-0.0845,-0.0854,-0.0934,-0.0924,-0.0927,-0.0934,-0.0941,-0.0975,-0.1009,-0.0975,-0.0977,-0.0985,-0.1043,-0.1058,-0.1063,-0.1115,-0.1087,-0.109,-0.1092,-0.1094,-0.1196,-0.1197,0,0,0,0,0,0,-0.0837,-0.085,-0.0932,-0.0936,-0.0887,-0.0936,-0.0945,-0.0963,-0.1009,-0.1015,-0.0985,-0.0986,-0.1052,-0.1059,-0.1066,-0.1106,-0.1091,-0.1094,-0.1096,-0.1196,-0.1197,-0.1197,0,0,0,0,0,0,-0.0835,-0.0844,-0.0929,-0.0894,-0.0905,-0.0939,-0.0959,-0.0965,-0.098,-0.1016,-0.1023,-0.0994,-0.1052,-0.1061,-0.1097,-0.1109,-0.1095,-0.1099,-0.1195,-0.1196,-0.1197,-0.1187,0,0,0,0,0,0,-0.0832,-0.0843,-0.0855,-0.0894,-0.0907,-0.0958,-0.096,-0.0966,-0.0985,-0.0986,-0.1026,-0.1033,-0.1052,-0.1092,-0.1101,-0.1114,-0.1101,-0.1194,-0.1195,-0.1197,-0.1187,-0.1188,-0.1189,0,0,0,0,0,-0.0828,-0.0849,-0.0855,-0.0865,-0.0921,-0.0959,-0.0967,-0.0988,-0.0986,-0.0998,-0.1022,-0.1031,-0.1106,-0.1096,-0.1105,-0.112,-0.1193,-0.1195,-0.1197,-0.1186,-0.1188,-0.1189,0,0,0,0,0,0,-0.0811,-0.0855,-0.0862,-0.0896,-0.0924,-0.0963,-0.0979,-0.0989,-0.1018,-0.1018,-0.1044,-0.1053,-0.1088,-0.1107,-0.1095,-0.1153,-0.115,-0.1154,-0.1139,-0.1141,-0.1142,-0.1137,-0.1104,0,0,0,0,0,-0.0811,-0.0837,-0.0874,-0.0901,-0.0915,-0.0944,-0.0961,-0.0976,-0.1006,-0.1018,-0.1044,-0.1073,-0.1104,-0.1123,-0.1153,-0.1189,-0.12,-0.1204,-0.1205,-0.1206,-0.1209,-0.1232,-0.1235,-0.1203,-0.1203,-0.1202,0,0,-0.0812,-0.0839,-0.0854,-0.0899,-0.0922,-0.095,-0.0954,-0.0983,-0.1004,-0.1022,-0.1059,-0.1079,-0.1114,-0.1151,-0.1168,-0.1168,-0.122,-0.1208,-0.1208,-0.1211,-0.1234,-0.1237,-0.124,-0.1204,-0.1203,-0.1203,0,0,-0.0828,-0.0851,-0.0876,-0.09,-0.0934,-0.0954,-0.096,-0.0998,-0.1012,-0.1049,-0.1064,-0.109,-0.1141,-0.1166,-0.1185,-0.1213,-0.1223,-0.1222,-0.1228,-0.1249,-0.1252,-0.1254,-0.1266,-0.127,-0.1224,-0.1224,-0.1224,0,-0.0825,-0.0867,-0.0889,-0.0917,-0.0937,-0.0955,-0.0982,-0.1004,-0.1047,-0.1061,-0.1059,-0.1125,-0.115,-0.1194,-0.1201,-0.1215,-0.1224,-0.1217,-0.125,-0.1252,-0.1255,-0.1266,-0.127,-0.1224,-0.1224,-0.1224,-0.1224,0,-0.0863,-0.0891,-0.0908,-0.0949,-0.0971,-0.0998,-0.1026,-0.1045,-0.1058,-0.1079,-0.1117,-0.1147,-0.1184,-0.1195,-0.1208,-0.1242,-0.1241,-0.1244,-0.1242,-0.1257,-0.1269,-0.1273,-0.1224,-0.1224,-0.1224,-0.1224,0,0,-0.087,-0.0923,-0.0929,-0.0949,-0.0989,-0.1012,-0.1042,-0.1077,-0.1095,-0.1124,-0.1151,-0.1194,-0.1198,-0.122,-0.1236,-0.1255,-0.1277,-0.1256,-0.1258,-0.126,-0.1318,-0.1317,-0.1321,-0.1284,-0.1284,-0.1285,-0.1316,0,-0.0892,-0.0944,-0.0966,-0.1009,-0.1036,-0.1054,-0.108,-0.1108,-0.1128,-0.1156,-0.1179,-0.121,-0.1212,-0.1225,-0.1245,-0.127,-0.1289,-0.1268,-0.131,-0.1311,-0.1302,-0.1327,-0.1324,-0.1352,-0.132,-0.1321,-0.1322,0,-0.0925,-0.0955,-0.1,-0.1039,-0.1052,-0.1074,-0.111,-0.1135,-0.1169,-0.1182,-0.1207,-0.1222,-0.1255,-0.1251,-0.1298,-0.1283,-0.1302,-0.1317,-0.1318,-0.1324,-0.1318,-0.1335,-0.1361,-0.1366,-0.1328,-0.1328,-0.1327,0,-0.0928,-0.0979,-0.1014,-0.103,-0.1075,-0.1091,-0.1111,-0.1143,-0.1164,-0.1196,-0.121,-0.1245,-0.1264,-0.1292,-0.1317,-0.1311,-0.1362,-0.1359,-0.1376,-0.1375,-0.1387,-0.1386,-0.1418,-0.1396,-0.1396,-0.1396,-0.1396,0,-0.0951,-0.0979,-0.1016,-0.1037,-0.1069,-0.1094,-0.1125,-0.1147,-0.1176,-0.1203,-0.122,-0.1245,-0.1276,-0.1305,-0.1325,-0.1362,-0.1371,-0.1384,-0.1389,-0.1383,-0.1381,-0.1396,-0.1396,-0.1397,-0.1397,-0.1397,-0.1397,0,-0.096,-0.0985,-0.1024,-0.1064,-0.1075,-0.1097,-0.1132,-0.1155,-0.1176,-0.121,-0.1219,-0.1253,-0.1289,-0.1316,-0.1362,-0.1376,-0.1416,-0.1421,-0.1405,-0.1408,-0.1424,-0.1422,-0.1468,-0.1476,-0.1447,-0.1447,-0.1447,0,-0.0974,-0.0995,-0.1038,-0.1057,-0.1077,-0.1107,-0.1129,-0.1154,-0.1176,-0.1217,-0.1235,-0.1272,-0.1303,-0.136,-0.1389,-0.1425,-0.1432,-0.1445,-0.1438,-0.1432,-0.1434,-0.1433,-0.1437,-0.1447,-0.1447,-0.1447,-0.1447,0,-0.0996,-0.1008,-0.1038,-0.1073,-0.1098,-0.1127,-0.1156,-0.1171,-0.1203,-0.1227,-0.1264,-0.1288,-0.1336,-0.1373,-0.1412,-0.1434,-0.1447,-0.1449,-0.1456,-0.145,-0.1441,-0.1448,-0.1409,-0.1448,-0.1448,-0.1448,-0.1448,-0.1448,-0.1009,-0.103,-0.1063,-0.1097,-0.1122,-0.1149,-0.1173,-0.1197,-0.1228,-0.1269,-0.1282,-0.1321,-0.1356,-0.141,-0.1432,-0.1464,-0.1464,-0.1472,-0.1475,-0.1477,-0.1477,-0.1435,-0.1471,-0.1471,-0.1471,-0.1471,-0.1471,0,-0.1033,-0.1056,-0.1087,-0.1127,-0.1154,-0.1163,-0.1196,-0.1219,-0.1252,-0.1283,-0.1313,-0.1357,-0.1394,-0.1426,-0.1465,-0.1484,-0.1491,-0.1493,-0.1493,-0.1498,-0.1474,-0.1466,-0.1487,-0.1487,-0.1487,-0.1487,-0.1487,-0.1487,-0.105,-0.1086,-0.1102,-0.1152,-0.1175,-0.1212,-0.1231,-0.1257,-0.1282,-0.133,-0.136,-0.1381,-0.1414,-0.1455,-0.149,-0.1499,-0.1513,-0.1514,-0.1525,-0.1502,-0.15,-0.1498,-0.149,-0.1517,-0.1517,-0.1547,-0.1547,-0.1547]}]]